Natchitoches, LA

10:14 PM CDT on October 20, 2019 (GMT -0500)
Natchitoches Regional

Weather History for KIER - August, 2019

Change the Weather History Date:

Sunday, August 11, 2019

  Actual Average Record
Temperature  
Mean Temperature 87 °F -  
Max Temperature 99 °F 93 °F 105 °F (1948)
Min Temperature 75 °F 71 °F 61 °F (1989)
Cooling Degree Days 22    
Growing Degree Days 37 (Base 50)    
Moisture  
Dew Point 75 °F    
Average Humidity 71    
Maximum Humidity 99    
Minimum Humidity 42    
Precipitation  
Precipitation 0.00 in - - ()
Sea Level Pressure  
Sea Level Pressure 29.97 in    
Wind  
Wind Speed 3 mph (SSW)    
Max Wind Speed 9 mph    
Max Gust Speed -    
Visibility 10 miles    
Events      
Averages and records for this station are not official NWS values.
T = Trace of Precipitation, MM = Missing Value Source: NWS Daily Summary

Daily Weather History Graph

Daily Weather History Graph

Search for Another Location

Airport or City:

Astronomy

Aug. 11, 2019 Rise Set
Actual Time 6:34 AM CDT 8:00 PM CDT
Civil Twilight 6:08 AM CDT 8:26 PM CDT
Nautical Twilight 5:37 AM CDT 8:56 PM CDT
Astronomical Twilight 5:05 AM CDT 9:29 PM CDT
Moon 5:31 PM CDT (8/11) 3:03 AM CDT (8/11)
Length of Visible Light 14h 17m
Length of Day
13h 25m
Waxing Gibbous, 87% of the Moon is Illuminated
Aug 11
Waxing Gibbous
Aug 15
Full
Aug 23
Last Quarter
Aug 30
New
Sep 5
First Quarter

Hourly Weather History & Observations

Time (CDT) Temp. Heat Index Dew Point Humidity Pressure Visibility Wind Dir Wind Speed Gust Speed Precip Events Conditions
12:15 AM 78.6 °F - 76.1 °F 92% 29.96 in 10.0 mi Calm Calm - N/A   Clear
12:35 AM 78.4 °F - 76.1 °F 92% 29.96 in 10.0 mi Calm Calm - N/A   Clear
12:55 AM 79.0 °F - 76.1 °F 91% 29.96 in 10.0 mi SSW 3.5 mph - N/A   Clear
1:15 AM 79.9 °F - 76.1 °F 88% 29.95 in 10.0 mi SSW 4.6 mph - N/A   Clear
1:35 AM 79.7 °F - 75.7 °F 88% 29.96 in 10.0 mi SW 3.5 mph - N/A   Clear
1:55 AM 79.2 °F - 75.7 °F 89% 29.96 in 10.0 mi SW 3.5 mph - N/A   Clear
2:15 AM 79.0 °F - 75.6 °F 89% 29.96 in 10.0 mi SW 3.5 mph - N/A   Clear
2:35 AM 78.8 °F - 75.7 °F 90% 29.96 in 10.0 mi SSW 4.6 mph - N/A   Clear
2:55 AM 78.4 °F - 75.7 °F 91% 29.96 in 10.0 mi Calm Calm - N/A   Clear
3:15 AM 78.1 °F - 75.7 °F 92% 29.95 in 10.0 mi Calm Calm - N/A   Clear
3:35 AM 77.9 °F - 75.6 °F 92% 29.96 in 10.0 mi SW 3.5 mph - N/A   Clear
3:55 AM 77.5 °F - 75.7 °F 94% 29.96 in 10.0 mi SW 3.5 mph - N/A   Clear
4:15 AM 77.5 °F - 75.7 °F 94% 29.96 in 10.0 mi WSW 3.5 mph - N/A   Clear
4:35 AM 77.0 °F - 75.6 °F 95% 29.96 in 10.0 mi Calm Calm - N/A   Clear
5:15 AM 76.5 °F - 75.2 °F 96% 29.97 in 10.0 mi Calm Calm - N/A   Clear
5:35 AM 76.1 °F - 75.2 °F 97% 29.98 in 10.0 mi Calm Calm - N/A   Clear
5:55 AM 76.1 °F - 75.2 °F 97% 29.97 in 7.0 mi Calm Calm - N/A   Clear
6:15 AM 75.4 °F - 74.8 °F 98% 29.98 in 7.0 mi Calm Calm - N/A   Clear
6:35 AM 75.2 °F - 75.0 °F 99% 29.99 in 7.0 mi Calm Calm - N/A   Clear
6:55 AM 75.0 °F - 74.7 °F 99% 30.00 in 5.0 mi SSE 3.5 mph - N/A   Clear
7:15 AM 75.9 °F - 75.6 °F 99% 30.01 in 7.0 mi Calm Calm - N/A   Clear
7:35 AM 77.9 °F - 76.1 °F 94% 30.02 in 7.0 mi Calm Calm - N/A   Clear
7:55 AM 80.1 °F 85.5 °F 76.3 °F 88% 30.03 in 7.0 mi Calm Calm - N/A   Clear
8:15 AM 82.0 °F 90.2 °F 77.2 °F 85% 30.04 in 10.0 mi Calm Calm - N/A   Clear
8:35 AM 83.5 °F 93.6 °F 77.9 °F 83% 30.04 in 10.0 mi Calm Calm - N/A   Clear
8:55 AM 85.3 °F 97.2 °F 78.1 °F 79% 30.04 in 10.0 mi WSW 8.1 mph - N/A   Clear
9:15 AM 86.9 °F 99.9 °F 78.1 °F 75% 30.04 in 10.0 mi West 6.9 mph - N/A   Scattered Clouds
9:55 AM 88.0 °F 100.7 °F 77.5 °F 71% 30.04 in 10.0 mi West 9.2 mph - N/A   Scattered Clouds
10:15 AM 90.5 °F 104.0 °F 77.4 °F 65% 30.04 in 10.0 mi WNW 3.5 mph - N/A   Clear
10:35 AM 91.0 °F 103.5 °F 76.5 °F 62% 30.04 in 10.0 mi WSW 4.6 mph - N/A   Clear
10:55 AM 91.9 °F 103.9 °F 75.7 °F 59% 30.04 in 10.0 mi WSW 3.5 mph - N/A   Clear
11:15 AM 93.2 °F 105.7 °F 76.1 °F 57% 30.03 in 10.0 mi SW 6.9 mph - N/A   Scattered Clouds
11:35 AM 93.6 °F 106.7 °F 76.1 °F 57% 30.02 in 10.0 mi WSW 5.8 mph - N/A   Mostly Cloudy
11:55 AM 93.2 °F 105.0 °F 75.4 °F 56% 30.02 in 10.0 mi SSW 3.5 mph - N/A   Scattered Clouds
12:15 PM 94.5 °F 106.0 °F 74.7 °F 53% 30.02 in 10.0 mi SSW 5.8 mph - N/A   Scattered Clouds
12:35 PM 94.1 °F 104.5 °F 73.9 °F 52% 30.01 in 10.0 mi West 6.9 mph - N/A   Scattered Clouds
12:55 PM 95.4 °F 104.7 °F 73.0 °F 48% 30.00 in 10.0 mi SW 6.9 mph - N/A   Scattered Clouds
1:15 PM 97.0 °F 107.7 °F 73.6 °F 47% 29.99 in 10.0 mi SSW 4.6 mph - N/A   Mostly Cloudy
1:35 PM 96.4 °F 105.7 °F 72.5 °F 46% 29.99 in 10.0 mi SSW 4.6 mph - N/A   Scattered Clouds
1:55 PM 97.7 °F 105.7 °F 71.1 °F 42% 29.98 in 10.0 mi West 3.5 mph - N/A   Scattered Clouds
2:15 PM 98.4 °F 108.8 °F 73.0 °F 44% 29.97 in 10.0 mi WSW 5.8 mph - N/A   Mostly Cloudy
2:35 PM 98.6 °F 107.7 °F 71.8 °F 42% 29.97 in 10.0 mi WNW 3.5 mph - N/A   Mostly Cloudy
2:55 PM 99.1 °F 108.9 °F 72.5 °F 42% 29.96 in 10.0 mi WNW 3.5 mph - N/A   Scattered Clouds
3:15 PM 96.4 °F 105.7 °F 72.3 °F 46% 29.96 in 10.0 mi Calm Calm - N/A   Mostly Cloudy
3:35 PM 96.4 °F 105.0 °F 72.1 °F 45% 29.96 in 10.0 mi ESE 5.8 mph - N/A   Mostly Cloudy
3:55 PM 95.5 °F 104.4 °F 72.7 °F 47% 29.95 in 10.0 mi ESE 4.6 mph - N/A   Scattered Clouds
4:15 PM 95.2 °F 104.2 °F 72.7 °F 48% 29.94 in 10.0 mi ESE 4.6 mph - N/A   Clear
4:35 PM 98.4 °F 108.8 °F 72.9 °F 44% 29.94 in 10.0 mi SE 3.5 mph - N/A   Clear
4:55 PM 99.3 °F 110.1 °F 73.0 °F 43% 29.93 in 10.0 mi SSE 6.9 mph - N/A   Clear
5:15 PM 98.6 °F 108.4 °F 72.9 °F 43% 29.93 in 10.0 mi SSE 6.9 mph - N/A   Clear
5:35 PM 94.3 °F 102.2 °F 72.0 °F 48% 29.93 in 10.0 mi SSE 5.8 mph - N/A   Clear
5:55 PM 96.4 °F 105.7 °F 72.7 °F 46% 29.93 in 10.0 mi SSE 5.8 mph - N/A   Clear
6:15 PM 97.2 °F 106.6 °F 72.5 °F 45% 29.93 in 10.0 mi SSE 8.1 mph - N/A   Clear
6:35 PM 97.2 °F 106.6 °F 72.9 °F 45% 29.93 in 10.0 mi SE 4.6 mph - N/A   Clear
6:55 PM 96.8 °F 105.8 °F 72.5 °F 45% 29.93 in 10.0 mi South 3.5 mph - N/A   Clear
7:15 PM 95.2 °F 105.6 °F 73.9 °F 50% 29.93 in 10.0 mi SSW 3.5 mph - N/A   Clear
7:55 PM 89.2 °F 99.0 °F 74.7 °F 62% 29.93 in 10.0 mi Calm Calm - N/A   Clear
8:15 PM 86.4 °F 95.1 °F 74.8 °F 68% 29.93 in 10.0 mi South 3.5 mph - N/A   Clear
8:35 PM 85.1 °F 93.3 °F 74.7 °F 71% 29.93 in 7.0 mi Calm Calm - N/A   Clear
9:15 PM 83.8 °F 91.1 °F 74.5 °F 73% 29.94 in 10.0 mi Calm Calm - N/A   Clear
9:35 PM 81.9 °F 88.5 °F 75.2 °F 80% 29.94 in 10.0 mi Calm Calm - N/A   Clear
9:55 PM 81.5 °F 88.3 °F 75.7 °F 83% 29.94 in 10.0 mi Calm Calm - N/A   Clear
10:15 PM 81.7 °F 88.0 °F 75.0 °F 80% 29.94 in 10.0 mi Calm Calm - N/A   Clear
10:35 PM 80.6 °F 86.2 °F 75.4 °F 84% 29.94 in 10.0 mi Calm Calm - N/A   Clear
10:55 PM 79.9 °F - 75.2 °F 86% 29.93 in 10.0 mi Calm Calm - N/A   Clear
11:15 PM 79.0 °F - 75.4 °F 89% 29.93 in 10.0 mi Calm Calm - N/A   Clear
11:35 PM 78.8 °F - 75.4 °F 89% 29.93 in 10.0 mi Calm Calm - N/A   Clear
11:55 PM 78.4 °F - 75.2 °F 90% 29.93 in 10.0 mi Calm Calm - N/A   Clear